TimeEST,TemperatureF,Dew PointF,Humidity,Sea Level PressureIn,VisibilityMPH,Wind Direction,Wind SpeedMPH,Gust SpeedMPH,PrecipitationIn,Events,Conditions,WindDirDegrees,DateUTC
12:52 AM,32.0,30.0,92,30.30,10.0,Calm,Calm,-,N/A,,Overcast,0,2012-12-04 05:52:00
1:34 AM,32.0,30.2,93,30.25,10.0,Calm,Calm,-,N/A,,Overcast,0,2012-12-04 06:34:00
1:52 AM,33.1,30.0,89,30.30,10.0,Calm,Calm,-,N/A,,Overcast,0,2012-12-04 06:52:00
2:52 AM,33.1,30.0,89,30.27,10.0,Calm,Calm,-,N/A,,Overcast,0,2012-12-04 07:52:00
3:52 AM,33.1,30.0,89,30.29,10.0,Calm,Calm,-,N/A,,Overcast,0,2012-12-04 08:52:00
4:52 AM,33.1,30.9,92,30.29,10.0,Calm,Calm,-,N/A,,Overcast,0,2012-12-04 09:52:00
5:52 AM,33.1,30.0,89,30.27,10.0,Calm,Calm,-,N/A,,Overcast,0,2012-12-04 10:52:00
6:52 AM,33.1,30.0,89,30.27,10.0,Calm,Calm,-,N/A,,Overcast,0,2012-12-04 11:52:00
7:52 AM,33.1,30.9,92,30.27,10.0,ENE,3.5,-,N/A,,Overcast,60,2012-12-04 12:52:00
8:52 AM,34.0,30.9,89,30.27,10.0,Calm,Calm,-,N/A,,Overcast,0,2012-12-04 13:52:00
9:52 AM,35.1,30.9,85,30.26,10.0,Calm,Calm,-,N/A,,Overcast,0,2012-12-04 14:52:00
10:43 AM,37.4,32.0,81,30.19,10.0,Calm,Calm,-,N/A,,Overcast,0,2012-12-04 15:43:00
10:52 AM,37.0,32.0,82,30.23,10.0,Calm,Calm,-,N/A,,Overcast,0,2012-12-04 15:52:00
11:52 AM,37.9,33.1,83,30.19,10.0,North,4.6,-,N/A,,Overcast,360,2012-12-04 16:52:00
12:52 PM,37.9,33.1,83,30.17,10.0,NNW,4.6,-,N/A,,Overcast,340,2012-12-04 17:52:00
1:52 PM,39.9,34.0,79,30.13,10.0,NW,3.5,-,N/A,,Overcast,320,2012-12-04 18:52:00
2:22 PM,39.2,33.8,81,30.09,-9999.0,NNW,3.5,-,N/A,,Unknown,330,2012-12-04 19:22:00
2:52 PM,41.0,34.0,76,30.12,10.0,Calm,Calm,-,N/A,,Mostly Cloudy,0,2012-12-04 19:52:00
3:52 PM,39.9,34.0,79,30.11,-9999.0,Calm,Calm,-,N/A,,Unknown,0,2012-12-04 20:52:00
4:52 PM,34.0,30.9,89,30.09,10.0,Calm,Calm,-,N/A,,Unknown,0,2012-12-04 21:52:00
6:19 PM,30.2,28.4,93,30.02,8.0,Calm,Calm,-,N/A,,Scattered Clouds,0,2012-12-04 23:19:00
6:27 PM,30.2,28.4,93,30.02,8.0,Calm,Calm,-,N/A,,Mostly Cloudy,0,2012-12-04 23:27:00
6:52 PM,30.9,28.9,92,30.05,9.0,Calm,Calm,-,N/A,,Overcast,0,2012-12-04 23:52:00
7:52 PM,33.1,30.9,92,30.02,7.0,Calm,Calm,-,N/A,,Overcast,0,2012-12-05 00:52:00
8:22 PM,33.8,32.0,93,29.95,1.8,Calm,Calm,-,N/A,,Overcast,0,2012-12-05 01:22:00
8:32 PM,33.8,32.0,93,29.95,1.0,Calm,Calm,-,N/A,,Overcast,0,2012-12-05 01:32:00
8:52 PM,33.1,32.0,96,29.98,0.2,Calm,Calm,-,N/A,Fog,Fog,0,2012-12-05 01:52:00
9:52 PM,33.1,30.9,92,29.97,0.2,Calm,Calm,-,N/A,Fog,Fog,0,2012-12-05 02:52:00
10:14 PM,33.8,32.0,93,29.91,0.5,Calm,Calm,-,N/A,Fog,Fog,0,2012-12-05 03:14:00
10:52 PM,33.1,30.9,92,29.94,0.8,Calm,Calm,-,N/A,,Overcast,0,2012-12-05 03:52:00
11:02 PM,33.8,32.0,93,29.89,1.2,Calm,Calm,-,N/A,,Overcast,0,2012-12-05 04:02:00
11:11 PM,33.8,32.0,93,29.89,0.8,Calm,Calm,-,N/A,,Overcast,0,2012-12-05 04:11:00
11:28 PM,33.8,32.0,93,29.87,0.8,Calm,Calm,-,N/A,,Mist,0,2012-12-05 04:28:00
11:52 PM,34.0,32.0,92,29.90,0.5,Calm,Calm,-,N/A,Fog,Fog,0,2012-12-05 04:52:00